Location: Splawn
(30.9202°N, 96.9858°W)
Time: 10:36:23
(UTC+00:00)

Explorer 11/Cluster Stage 4 - Visible Passes

Search period start: 19 February 2020 00:00
Search period end: 29 February 2020 00:00
Orbit: 467 x 1259 km, 28.8° (Epoch: 18 February)

Date Brightness Start Highest point End Pass type
(mag) Time Alt. Az. Time Alt. Az. Time Alt. Az.
19 Feb 8.5 10:40:31 15° E 10:40:31 15° E 10:41:13 10° E visible
19 Feb 5.9 12:22:39 13° W 12:25:42 54° S 12:29:26 10° ESE visible
20 Feb 8.9 10:30:31 11° E 10:30:31 11° E 10:30:41 10° E visible
20 Feb 6.0 12:12:40 17° W 12:15:09 49° S 12:18:45 10° ESE visible
21 Feb 6.1 12:02:41 23° WSW 12:04:35 44° SSW 12:08:05 10° ESE visible
22 Feb 6.2 11:52:42 28° WSW 11:54:01 39° SSW 11:57:25 10° ESE visible
23 Feb 6.4 11:42:44 31° SW 11:43:25 34° SSW 11:46:44 10° SE visible
24 Feb 6.6 11:32:47 30° SSW 11:32:49 30° SSW 11:36:03 10° SE visible
25 Feb 7.1 11:22:53 25° S 11:22:53 25° S 11:25:20 10° SE visible
26 Feb 7.6 11:13:01 19° S 11:13:01 19° S 11:14:35 10° SSE visible
27 Feb 8.2 11:03:11 13° SSE 11:03:11 13° SSE 11:03:49 10° SSE visible
28 Feb 9.6 03:30:09 10° SSW 03:30:26 11° SSW 03:30:26 11° SSW visible
